TimeEST,TemperatureF,Dew PointF,Humidity,Sea Level PressureIn,VisibilityMPH,Wind Direction,Wind SpeedMPH,Gust SpeedMPH,PrecipitationIn,Events,Conditions,WindDirDegrees,DateUTC
12:53 AM,70.0,66.0,87,30.05,10.0,North,5.8,-,N/A,,Mostly Cloudy,10,2013-01-21 05:53:00
1:53 AM,70.0,66.9,90,30.05,10.0,North,5.8,-,N/A,,Mostly Cloudy,10,2013-01-21 06:53:00
2:53 AM,69.1,66.9,93,30.03,10.0,NNE,3.5,-,N/A,,Mostly Cloudy,20,2013-01-21 07:53:00
3:53 AM,69.8,66.2,88,30.03,10.0,Calm,Calm,-,N/A,,Scattered Clouds,0,2013-01-21 08:53:00
4:53 AM,69.1,66.0,90,30.02,10.0,North,4.6,-,N/A,,Mostly Cloudy,10,2013-01-21 09:53:00
5:53 AM,66.9,66.0,97,30.03,10.0,Calm,Calm,-,N/A,,Mostly Cloudy,0,2013-01-21 10:53:00
6:53 AM,66.2,64.4,94,30.04,10.0,Calm,Calm,-,N/A,,Mostly Cloudy,0,2013-01-21 11:53:00
7:53 AM,68.0,66.0,93,30.06,10.0,Calm,Calm,-,N/A,,Mostly Cloudy,0,2013-01-21 12:53:00
8:53 AM,75.0,68.0,79,30.08,10.0,Calm,Calm,-,N/A,,Overcast,0,2013-01-21 13:53:00
9:53 AM,78.1,66.9,68,30.08,10.0,ESE,8.1,-,N/A,,Partly Cloudy,120,2013-01-21 14:53:00
10:41 AM,78.8,66.2,65,30.08,10.0,SE,6.9,-,N/A,,Overcast,130,2013-01-21 15:41:00
10:53 AM,79.0,66.0,64,30.08,10.0,SE,6.9,-,N/A,,Mostly Cloudy,140,2013-01-21 15:53:00
11:53 AM,79.0,66.9,66,30.06,10.0,ESE,5.8,-,N/A,,Mostly Cloudy,120,2013-01-21 16:53:00
12:53 PM,78.1,66.0,66,30.03,10.0,SE,6.9,-,N/A,,Overcast,130,2013-01-21 17:53:00
1:53 PM,79.0,66.0,64,30.00,10.0,South,9.2,-,N/A,,Partly Cloudy,170,2013-01-21 18:53:00
2:53 PM,78.1,66.9,68,29.99,10.0,South,9.2,-,N/A,,Mostly Cloudy,190,2013-01-21 19:53:00
3:13 PM,77.0,69.8,78,29.98,10.0,South,9.2,-,0.00,,Mostly Cloudy,180,2013-01-21 20:13:00
3:53 PM,75.0,69.1,82,29.99,10.0,South,8.1,-,0.01,Rain,Light Rain,180,2013-01-21 20:53:00
4:00 PM,75.2,69.8,83,29.99,10.0,South,4.6,-,0.00,Rain,Light Rain,190,2013-01-21 21:00:00
4:53 PM,75.9,68.0,76,29.99,5.0,SW,5.8,-,0.06,Rain,Light Rain,230,2013-01-21 21:53:00
5:53 PM,73.9,66.0,76,30.00,10.0,West,8.1,-,0.00,,Clear,260,2013-01-21 22:53:00
6:53 PM,73.0,64.9,76,30.02,10.0,West,6.9,-,N/A,,Clear,260,2013-01-21 23:53:00
7:53 PM,72.0,64.0,76,30.03,10.0,West,9.2,-,N/A,,Partly Cloudy,270,2013-01-22 00:53:00
8:53 PM,70.0,64.9,84,30.04,10.0,West,6.9,-,N/A,,Clear,260,2013-01-22 01:53:00
9:53 PM,69.1,64.9,87,30.05,10.0,WNW,9.2,-,N/A,,Scattered Clouds,290,2013-01-22 02:53:00
10:00 PM,69.8,64.4,83,30.04,10.0,WNW,9.2,-,N/A,,Mostly Cloudy,290,2013-01-22 03:00:00
10:35 PM,68.0,64.4,88,30.04,10.0,WNW,9.2,-,N/A,,Scattered Clouds,290,2013-01-22 03:35:00
10:53 PM,68.0,64.9,90,30.05,10.0,WNW,12.7,-,N/A,,Scattered Clouds,300,2013-01-22 03:53:00
11:00 PM,68.0,64.4,88,30.05,10.0,WNW,9.2,-,N/A,,Mostly Cloudy,300,2013-01-22 04:00:00
11:22 PM,68.0,64.4,88,30.05,10.0,WNW,9.2,-,N/A,,Partly Cloudy,300,2013-01-22 04:22:00
11:53 PM,66.9,64.0,90,30.05,10.0,NW,8.1,-,N/A,,Partly Cloudy,310,2013-01-22 04:53:00